,,,PA_Meas_PMT16A,,PR_Meas_QMR101_102,,RH_Meas_QMH101,,SR_Meas_QMS101,,TA_Meas_QMH101,,GenWind,,GenWind,
date,time,status,PA,status,PR,status,RH,status,SR,status,TA,status,DirAvg,status,SpdAvg,
2011-06-01, 00:00:04,VALID,1004.08,VALID,0,INVALID,163.617,VALID,0,VALID,25.9018,VALID,20,VALID,0.519531,
2011-06-01, 00:01:04,VALID,1004.1,VALID,0,INVALID,163.601,VALID,0,VALID,25.8629,VALID,20,VALID,0.552344,
2011-06-01, 00:02:04,VALID,1004.07,VALID,0,INVALID,163.594,VALID,0,VALID,25.8609,VALID,20,VALID,0.655078,
2011-06-01, 00:03:04,VALID,1004.04,VALID,0,INVALID,163.578,VALID,0,VALID,25.8434,VALID,20,VALID,0.647656,
2011-06-01, 00:04:04,VALID,1004.02,VALID,0,INVALID,163.578,VALID,0,VALID,25.7869,VALID,22,VALID,0.598828,
2011-06-01, 00:05:04,VALID,1004.01,VALID,0,INVALID,163.609,VALID,0,VALID,25.746,VALID,24,VALID,0.874219,
2011-06-01, 00:06:05,VALID,1004,VALID,0,INVALID,163.609,VALID,0,VALID,25.746,VALID,29,VALID,0.561328,
2011-06-01, 00:07:05,VALID,1003.99,VALID,0,INVALID,163.609,VALID,0,VALID,25.6876,VALID,29,VALID,0.476953,
2011-06-01, 00:08:05,VALID,1003.94,VALID,0,INVALID,163.617,VALID,0,VALID,25.6681,VALID,30,VALID,0.630469,
2011-06-01, 00:09:05,VALID,1003.91,VALID,0,INVALID,163.601,VALID,0,VALID,25.6292,VALID,29,VALID,0.440625,
2011-06-01, 00:10:05,VALID,1003.89,VALID,0,INVALID,163.632,VALID,0,VALID,25.6292,VALID,8,VALID,0.282813,
2011-06-01, 00:11:05,VALID,1003.88,VALID,0,INVALID,163.617,VALID,0,VALID,25.6292,VALID,5,VALID,0.787109,
2011-06-01, 00:12:05,VALID,1003.83,VALID,0,INVALID,163.601,VALID,0,VALID,25.6311,VALID,26,VALID,0.817969,
2011-06-01, 00:13:05,VALID,1003.79,VALID,0,INVALID,163.601,VALID,0,VALID,25.6486,VALID,357,VALID,0.686328,
2011-06-01, 00:14:05,VALID,1003.78,VALID,0,INVALID,163.624,VALID,0,VALID,25.7304,VALID,357,VALID,0.831641,
2011-06-01, 00:15:05,VALID,1003.78,VALID,0,INVALID,163.609,VALID,0,VALID,25.7674,VALID,355,VALID,0.941797,
2011-06-01, 00:16:05,VALID,1003.77,VALID,0,INVALID,163.609,VALID,0,VALID,25.8259,VALID,348,VALID,0.814062,
2011-06-01, 00:17:05,VALID,1003.74,VALID,0,INVALID,163.617,VALID,0,VALID,25.8648,VALID,350,VALID,1.18789,
2011-06-01, 00:18:05,VALID,1003.74,VALID,0,INVALID,163.609,VALID,0,VALID,25.9232,VALID,353,VALID,1.25742,
2011-06-01, 00:19:05,VALID,1003.7,VALID,0,INVALID,163.571,VALID,0,VALID,25.9408,VALID,354,VALID,0.821875,
2011-06-01, 00:20:05,VALID,1003.69,VALID,0,INVALID,163.594,VALID,0,VALID,25.9817,VALID,4,VALID,0.974219,
2011-06-01, 00:21:05,VALID,1003.66,VALID,0,INVALID,163.594,VALID,0,VALID,25.9817,VALID,354,VALID,1.13516,
2011-06-01, 00:22:05,VALID,1003.64,VALID,0,INVALID,163.578,VALID,0,VALID,26.0012,VALID,13,VALID,0.520703,
2011-06-01, 00:23:05,VALID,1003.61,VALID,0,INVALID,163.609,VALID,0,VALID,25.9992,VALID,3,VALID,1.38047,
2011-06-01, 00:24:05,VALID,1003.59,VALID,0,INVALID,163.563,VALID,0,VALID,26.0596,VALID,349,VALID,0.537891,
2011-06-01, 00:25:05,VALID,1003.58,VALID,0,INVALID,163.609,VALID,0,VALID,26.0576,VALID,351,VALID,0.793359,
2011-06-01, 00:26:05,VALID,1003.53,VALID,0,INVALID,163.594,VALID,0,VALID,26.0771,VALID,3,VALID,0.614453,
2011-06-01, 00:27:05,VALID,1003.52,VALID,0,INVALID,163.571,VALID,0,VALID,26.0985,VALID,359,VALID,0.718359,
2011-06-01, 00:28:05,VALID,1003.47,VALID,0,INVALID,163.586,VALID,0,VALID,26.116,VALID,7,VALID,0.846875,
2011-06-01, 00:29:05,VALID,1003.47,VALID,0,INVALID,163.609,VALID,0,VALID,26.157,VALID,2,VALID,0.602734,
2011-06-01, 00:30:05,VALID,1003.47,VALID,0,INVALID,163.586,VALID,0,VALID,26.157,VALID,2,VALID,0.295703,
2011-06-01, 00:31:05,VALID,1003.42,VALID,0,INVALID,163.556,VALID,0,VALID,26.1375,VALID,359,VALID,0.733594,
2011-06-01, 00:32:05,VALID,1003.47,VALID,0,INVALID,163.578,VALID,0,VALID,26.0985,VALID,358,VALID,0.316797,
2011-06-01, 00:33:05,VALID,1003.4,VALID,0,INVALID,163.563,VALID,0,VALID,26.0791,VALID,357,VALID,0.787109,
2011-06-01, 00:34:05,VALID,1003.43,VALID,0,INVALID,163.609,VALID,0,VALID,26.0401,VALID,20,VALID,0.382813,
2011-06-01, 00:35:05,VALID,1003.43,VALID,0,INVALID,163.594,VALID,0,VALID,26.0012,VALID,10,VALID,0.34375,
2011-06-01, 00:36:05,VALID,1003.41,VALID,0,INVALID,163.601,VALID,0,VALID,25.9213,VALID,354,VALID,0.594922,
2011-06-01, 00:37:05,VALID,1003.42,VALID,0,INVALID,163.601,VALID,0,VALID,25.8823,VALID,46,VALID,0.199609,
2011-06-01, 00:38:05,VALID,1003.4,VALID,0,INVALID,163.601,VALID,0,VALID,25.8843,VALID,56,VALID,0.314453,
2011-06-01, 00:39:05,VALID,1003.44,VALID,0,INVALID,163.594,VALID,0,VALID,25.8434,VALID,56,VALID,0.294141,
2011-06-01, 00:40:05,VALID,1003.46,VALID,0,INVALID,163.594,VALID,0,VALID,25.8259,VALID,27,VALID,0.708594,
2011-06-01, 00:41:05,VALID,1003.48,VALID,0,INVALID,163.594,VALID,0,VALID,25.783,VALID,58,VALID,0.477734,
2011-06-01, 00:42:05,VALID,1003.49,VALID,0,INVALID,163.571,VALID,0,VALID,25.7655,VALID,50,VALID,0.498437,
2011-06-01, 00:43:05,VALID,1003.48,VALID,0,INVALID,163.578,VALID,0,VALID,25.8064,VALID,32,VALID,0.560156,
2011-06-01, 00:44:05,VALID,1003.5,VALID,0,INVALID,163.617,VALID,0,VALID,25.8083,VALID,32,VALID,0.305859,
2011-06-01, 00:45:05,VALID,1003.49,VALID,0,INVALID,163.586,VALID,0,VALID,25.7869,VALID,32,VALID,0.286719,
2011-06-01, 00:46:05,VALID,1003.51,VALID,0,INVALID,163.594,VALID,0,VALID,25.746,VALID,32,VALID,0.158203,
2011-06-01, 00:47:05,VALID,1003.48,VALID,0,INVALID,163.601,VALID,0,VALID,25.7674,VALID,29,VALID,0.684375,
2011-06-01, 00:48:05,VALID,1003.48,VALID,0,INVALID,163.586,VALID,0,VALID,25.7655,VALID,23,VALID,0.173828,
2011-06-01, 00:49:05,VALID,1003.5,VALID,0,INVALID,163.601,VALID,0,VALID,25.7655,VALID,23,VALID,0.435937,
2011-06-01, 00:50:05,VALID,1003.49,VALID,0,INVALID,163.601,VALID,0,VALID,25.7655,VALID,23,VALID,0.154687,
2011-06-01, 00:51:05,VALID,1003.52,VALID,0,INVALID,163.594,VALID,0,VALID,25.7674,VALID,22,VALID,0.585547,
2011-06-01, 00:52:05,VALID,1003.48,VALID,0,INVALID,163.586,VALID,0,VALID,25.7655,VALID,18,VALID,0.336719,
2011-06-01, 00:53:05,VALID,1003.48,VALID,0,INVALID,163.609,VALID,0,VALID,25.7655,VALID,17,VALID,0.511719,
2011-06-01, 00:54:05,VALID,1003.51,VALID,0,INVALID,163.578,VALID,0,VALID,25.8064,VALID,18,VALID,0.446484,
2011-06-01, 00:55:05,VALID,1003.51,VALID,0,INVALID,163.609,VALID,0,VALID,25.785,VALID,9,VALID,0.591016,
2011-06-01, 00:56:05,VALID,1003.48,VALID,0,INVALID,163.601,VALID,0,VALID,25.8453,VALID,360,VALID,0.642578,
2011-06-01, 00:57:05,VALID,1003.44,VALID,0,INVALID,163.594,VALID,0,VALID,25.8453,VALID,1,VALID,0.597266,
2011-06-01, 00:58:05,VALID,1003.44,VALID,0,INVALID,163.586,VALID,0,VALID,25.8629,VALID,351,VALID,0.553516,
2011-06-01, 00:59:05,VALID,1003.46,VALID,0,INVALID,163.571,VALID,0,VALID,25.9018,VALID,355,VALID,0.727734,
2011-06-01, 01:00:05,VALID,1003.43,VALID,0,INVALID,163.586,VALID,0,VALID,25.9232,VALID,347,VALID,0.530859,
2011-06-01, 01:01:05,VALID,1003.44,VALID,0,INVALID,163.601,VALID,0,VALID,25.9622,VALID,5,VALID,0.741797,
2011-06-01, 01:02:05,VALID,1003.46,VALID,0,INVALID,163.594,VALID,0,VALID,25.9992,VALID,344,VALID,0.6,
2011-06-01, 01:03:05,VALID,1003.46,VALID,0,INVALID,163.601,VALID,0,VALID,26.0187,VALID,14,VALID,0.573828,
2011-06-01, 01:04:05,VALID,1003.44,VALID,0,INVALID,163.578,VALID,0,VALID,26.0791,VALID,11,VALID,0.691797,
2011-06-01, 01:05:05,VALID,1003.45,VALID,0,INVALID,163.556,VALID,0,VALID,26.0576,VALID,8,VALID,0.625,
2011-06-01, 01:06:05,VALID,1003.42,VALID,0,INVALID,163.556,VALID,0,VALID,26.0771,VALID,2,VALID,0.551172,
2011-06-01, 01:07:05,VALID,1003.42,VALID,0,INVALID,163.578,VALID,0,VALID,26.0966,VALID,316,VALID,0.350391,
2011-06-01, 01:08:05,VALID,1003.4,VALID,0,INVALID,163.571,VALID,0,VALID,26.116,VALID,329,VALID,0.116406,
2011-06-01, 01:09:05,VALID,1003.43,VALID,0,INVALID,163.571,VALID,0,VALID,26.1355,VALID,340,VALID,0.698438,
2011-06-01, 01:10:05,VALID,1003.42,VALID,0,INVALID,163.54,VALID,0,VALID,26.194,VALID,349,VALID,0.513281,
2011-06-01, 01:11:05,VALID,1003.43,VALID,0,INVALID,142.767,VALID,0,VALID,26.2544,VALID,359,VALID,1.33164,
2011-06-01, 01:12:05,VALID,1003.45,VALID,0,INVALID,155.103,VALID,0,VALID,26.2913,VALID,22,VALID,0.201172,
2011-06-01, 01:13:05,VALID,1003.52,VALID,0,INVALID,163.487,VALID,0,VALID,26.3518,VALID,159,VALID,2.0332,
2011-06-01, 01:14:05,VALID,1003.56,VALID,0,INVALID,163.533,VALID,0,VALID,26.3128,VALID,165,VALID,3.08047,
2011-06-01, 01:15:05,VALID,1003.56,VALID,0,INVALID,163.54,VALID,0,VALID,26.2154,VALID,166,VALID,1.41953,
2011-06-01, 01:16:05,VALID,1003.54,VALID,0,INVALID,163.586,VALID,0,VALID,26.1395,VALID,107,VALID,1.83203,
2011-06-01, 01:17:05,VALID,1003.52,VALID,0,INVALID,163.563,VALID,0,VALID,26.0596,VALID,154,VALID,1.65313,
2011-06-01, 01:18:05,VALID,1003.49,VALID,0,INVALID,163.578,VALID,0,VALID,26.0206,VALID,77,VALID,1.04922,
2011-06-01, 01:19:05,VALID,1003.47,VALID,0,INVALID,163.578,VALID,0,VALID,25.9622,VALID,114,VALID,0.649219,
2011-06-01, 01:20:05,VALID,1003.49,VALID,0,INVALID,163.594,VALID,0,VALID,25.9427,VALID,50,VALID,0.627344,
2011-06-01, 01:21:05,VALID,1003.48,VALID,0,INVALID,163.578,VALID,0,VALID,25.9038,VALID,130,VALID,1.0582,
2011-06-01, 01:22:05,VALID,1003.46,VALID,0,INVALID,163.586,VALID,0,VALID,25.8453,VALID,92,VALID,1.26523,
2011-06-01, 01:23:05,VALID,1003.45,VALID,0,INVALID,163.601,VALID,0,VALID,25.8239,VALID,101,VALID,1.37461,
2011-06-01, 01:24:05,VALID,1003.46,VALID,0,INVALID,163.617,VALID,0,VALID,25.8239,VALID,120,VALID,1.41016,
2011-06-01, 01:25:05,VALID,1003.45,VALID,0,INVALID,163.617,VALID,0,VALID,25.8648,VALID,133,VALID,1.43633,
2011-06-01, 01:26:05,VALID,1003.44,VALID,0,INVALID,163.601,VALID,0,VALID,25.8843,VALID,122,VALID,1.80195,
2011-06-01, 01:27:05,VALID,1003.43,VALID,0,INVALID,163.586,VALID,0,VALID,25.9622,VALID,148,VALID,1.56172,
2011-06-01, 01:28:05,VALID,1003.45,VALID,0,INVALID,163.563,VALID,0,VALID,26.0985,VALID,105,VALID,1.18594,
2011-06-01, 01:29:05,VALID,1003.44,VALID,0,INVALID,163.578,VALID,0,VALID,25.9992,VALID,116,VALID,1.68477,
2011-06-01, 01:30:05,VALID,1003.41,VALID,0,INVALID,163.571,VALID,0,VALID,25.9408,VALID,98,VALID,1.78477,
2011-06-01, 01:31:05,VALID,1003.43,VALID,0,INVALID,163.617,VALID,0,VALID,25.9213,VALID,105,VALID,1.88828,
2011-06-01, 01:32:05,VALID,1003.43,VALID,0,INVALID,163.578,VALID,0,VALID,25.8823,VALID,128,VALID,2.01875,
2011-06-01, 01:33:05,VALID,1003.4,VALID,0,INVALID,163.586,VALID,0,VALID,25.8629,VALID,139,VALID,2.27109,
2011-06-01, 01:34:05,VALID,1003.41,VALID,0,INVALID,163.586,VALID,0,VALID,25.8648,VALID,131,VALID,1.33086,
2011-06-01, 01:35:05,VALID,1003.41,VALID,0,INVALID,163.601,VALID,0,VALID,25.8453,VALID,95,VALID,1.05859,
2011-06-01, 01:36:05,VALID,1003.38,VALID,0,INVALID,163.571,VALID,0,VALID,25.8259,VALID,137,VALID,0.814062,
2011-06-01, 01:37:05,VALID,1003.37,VALID,0,INVALID,163.586,VALID,0,VALID,25.7869,VALID,137,VALID,0.532031,
2011-06-01, 01:38:05,VALID,1003.36,VALID,0,INVALID,163.594,VALID,0,VALID,25.746,VALID,113,VALID,0.785547,
2011-06-01, 01:39:05,VALID,1003.38,VALID,0,INVALID,163.578,VALID,0,VALID,25.709,VALID,111,VALID,1.02656,
2011-06-01, 01:40:05,VALID,1003.38,VALID,0,INVALID,163.601,VALID,0,VALID,25.6486,VALID,96,VALID,1.3293,
2011-06-01, 01:41:05,VALID,1003.37,VALID,0,INVALID,163.601,VALID,0,VALID,25.6506,VALID,96,VALID,0.744141,
2011-06-01, 01:42:05,VALID,1003.39,VALID,0,INVALID,163.609,VALID,0,VALID,25.6116,VALID,79,VALID,0.562891,
2011-06-01, 01:43:05,VALID,1003.37,VALID,0,INVALID,163.617,VALID,0,VALID,25.5727,VALID,93,VALID,1.03984,
2011-06-01, 01:44:05,VALID,1003.37,VALID,0,INVALID,163.609,VALID,0,VALID,25.5513,VALID,87,VALID,0.778516,
2011-06-01, 01:45:05,VALID,1003.37,VALID,0,INVALID,163.617,VALID,0.100563,VALID,25.5123,VALID,78,VALID,0.458203,
2011-06-01, 01:46:05,VALID,1003.38,VALID,0,INVALID,163.609,VALID,0.100563,VALID,25.5104,VALID,74,VALID,0,
2011-06-01, 01:47:05,VALID,1003.39,VALID,0,INVALID,163.609,VALID,0.100563,VALID,25.4714,VALID,74,VALID,0.235938,
2011-06-01, 01:48:05,VALID,1003.42,VALID,0,INVALID,163.617,VALID,0.100563,VALID,25.452,VALID,84,VALID,0.417578,
2011-06-01, 01:49:05,VALID,1003.4,VALID,0,INVALID,163.624,VALID,0,VALID,25.4344,VALID,87,VALID,0.596484,
2011-06-01, 01:50:05,VALID,1003.45,VALID,0,INVALID,163.639,VALID,0.100563,VALID,25.413,VALID,122,VALID,0.619922,
2011-06-01, 01:51:05,VALID,1003.46,VALID,0,INVALID,163.639,VALID,0,VALID,25.3935,VALID,122,VALID,0.544141,
2011-06-01, 01:52:05,VALID,1003.45,VALID,0,INVALID,163.609,VALID,0.100563,VALID,25.4149,VALID,122,VALID,0.502344,
2011-06-01, 01:53:05,VALID,1003.45,VALID,0,INVALID,163.594,VALID,0.100563,VALID,25.3741,VALID,122,VALID,0.583203,
2011-06-01, 01:54:05,VALID,1003.45,VALID,0,INVALID,163.632,VALID,0.100563,VALID,25.3565,VALID,121,VALID,0.525781,
2011-06-01, 01:55:05,VALID,1003.44,VALID,0,INVALID,163.647,VALID,0.100563,VALID,25.3157,VALID,110,VALID,0.677344,
2011-06-01, 01:56:05,VALID,1003.46,VALID,0,INVALID,163.639,VALID,0,VALID,25.2786,VALID,96,VALID,0.681641,
2011-06-01, 01:57:05,VALID,1003.45,VALID,0,INVALID,163.639,VALID,0.100563,VALID,25.2397,VALID,97,VALID,0.626953,
2011-06-01, 01:58:05,VALID,1003.47,VALID,0,INVALID,163.632,VALID,0.100563,VALID,25.2007,VALID,96,VALID,0.588281,
2011-06-01, 01:59:05,VALID,1003.48,VALID,0,INVALID,163.617,VALID,0,VALID,25.1442,VALID,100,VALID,0.564844,
2011-06-01, 02:00:05,VALID,1003.5,VALID,0,INVALID,163.639,VALID,0,VALID,25.1229,VALID,103,VALID,0.429297,
2011-06-01, 02:01:05,VALID,1003.49,VALID,0,INVALID,163.639,VALID,0,VALID,25.1248,VALID,111,VALID,0.708203,
2011-06-01, 02:02:05,VALID,1003.51,VALID,0,INVALID,163.708,VALID,0,VALID,25.0839,VALID,112,VALID,0.520312,
2011-06-01, 02:03:05,VALID,1003.52,VALID,0,INVALID,163.609,VALID,0,VALID,25.0625,VALID,120,VALID,0.650781,
2011-06-01, 02:04:05,VALID,1003.53,VALID,0,INVALID,163.655,VALID,0,VALID,25.0839,VALID,120,VALID,0.247266,
2011-06-01, 02:05:05,VALID,1003.55,VALID,0,INVALID,163.624,VALID,0,VALID,25.1053,VALID,80,VALID,0.678906,
2011-06-01, 02:06:05,VALID,1003.54,VALID,0,INVALID,163.632,VALID,0,VALID,25.0663,VALID,85,VALID,0.267188,
2011-06-01, 02:07:05,VALID,1003.56,VALID,0,INVALID,163.639,VALID,0,VALID,25.0663,VALID,85,VALID,0.225,
2011-06-01, 02:08:05,VALID,1003.59,VALID,0,INVALID,163.662,VALID,0,VALID,25.045,VALID,85,VALID,0.157031,
2011-06-01, 02:09:05,VALID,1003.58,VALID,0,INVALID,163.662,VALID,0,VALID,25.0255,VALID,85,VALID,0.346094,
2011-06-01, 02:10:05,VALID,1003.59,VALID,0,INVALID,163.655,VALID,0,VALID,25.006,VALID,85,VALID,0.134375,
2011-06-01, 02:11:05,VALID,1003.61,VALID,0,INVALID,163.632,VALID,0,VALID,24.9866,VALID,85,VALID,0.113672,
2011-06-01, 02:12:05,VALID,1003.64,VALID,0,INVALID,163.639,VALID,0,VALID,24.9671,VALID,82,VALID,0.360156,
2011-06-01, 02:13:05,VALID,1003.64,VALID,0,INVALID,163.67,VALID,0,VALID,24.9671,VALID,82,VALID,0,
2011-06-01, 02:14:05,VALID,1003.66,VALID,0,INVALID,163.655,VALID,0,VALID,24.9476,VALID,82,VALID,0,
2011-06-01, 02:15:05,VALID,1003.66,VALID,0,INVALID,163.639,VALID,0,VALID,24.969,VALID,82,VALID,0,
2011-06-01, 02:16:05,VALID,1003.66,VALID,0,INVALID,163.662,VALID,0,VALID,24.969,VALID,82,VALID,0.0539063,
2011-06-01, 02:17:05,VALID,1003.65,VALID,0,INVALID,163.655,VALID,0,VALID,24.9495,VALID,82,VALID,0.364062,
2011-06-01, 02:18:05,VALID,1003.67,VALID,0,INVALID,163.662,VALID,0,VALID,24.969,VALID,82,VALID,0.366406,
2011-06-01, 02:19:05,VALID,1003.64,VALID,0,INVALID,163.662,VALID,0,VALID,24.9282,VALID,82,VALID,0.346484,
2011-06-01, 02:20:05,VALID,1003.63,VALID,0,INVALID,163.67,VALID,0,VALID,24.9282,VALID,82,VALID,0.341406,
2011-06-01, 02:21:05,VALID,1003.65,VALID,0,INVALID,163.655,VALID,0,VALID,24.9282,VALID,41,VALID,0.689062,
2011-06-01, 02:22:05,VALID,1003.64,VALID,0,INVALID,163.655,VALID,0,VALID,24.9087,VALID,41,VALID,0.601172,
2011-06-01, 02:23:05,VALID,1003.65,VALID,0,INVALID,163.678,VALID,0,VALID,24.9106,VALID,41,VALID,0.692187,
2011-06-01, 02:24:05,VALID,1003.67,VALID,0,INVALID,163.655,VALID,0,VALID,24.8697,VALID,41,VALID,0.310156,
2011-06-01, 02:25:05,VALID,1003.7,VALID,0,INVALID,163.67,VALID,0,VALID,24.8697,VALID,41,VALID,0.130469,
2011-06-01, 02:26:05,VALID,1003.69,VALID,0,INVALID,163.655,VALID,0,VALID,24.8892,VALID,41,VALID,0.059375,
2011-06-01, 02:27:05,VALID,1003.73,VALID,0,INVALID,163.67,VALID,0,VALID,24.8892,VALID,309,VALID,0.247656,
2011-06-01, 02:28:05,VALID,1003.73,VALID,0,INVALID,163.678,VALID,0,VALID,24.9087,VALID,311,VALID,0.2125,
2011-06-01, 02:29:05,VALID,1003.73,VALID,0,INVALID,163.67,VALID,0,VALID,24.9282,VALID,356,VALID,0.561328,
2011-06-01, 02:30:05,VALID,1003.76,VALID,0,INVALID,163.662,VALID,0,VALID,24.9495,VALID,356,VALID,0.407813,
2011-06-01, 02:31:05,VALID,1003.77,VALID,0,INVALID,163.662,VALID,0,VALID,24.9709,VALID,289,VALID,0.899219,
2011-06-01, 02:32:05,VALID,1003.78,VALID,0,INVALID,163.647,VALID,0,VALID,24.969,VALID,296,VALID,0.671094,
2011-06-01, 02:33:05,VALID,1003.78,VALID,0,INVALID,163.655,VALID,0,VALID,24.9671,VALID,291,VALID,0.470313,
2011-06-01, 02:34:05,VALID,1003.78,VALID,0,INVALID,163.67,VALID,0,VALID,25.0274,VALID,292,VALID,0.577344,
2011-06-01, 02:35:05,VALID,1003.81,VALID,0,INVALID,163.639,VALID,0,VALID,25.0255,VALID,292,VALID,0,
2011-06-01, 02:36:05,VALID,1003.85,VALID,0,INVALID,163.655,VALID,0,VALID,25.045,VALID,288,VALID,0.311719,
2011-06-01, 02:37:05,VALID,1003.87,VALID,0,INVALID,163.655,VALID,0,VALID,25.0644,VALID,286,VALID,0.230859,
2011-06-01, 02:38:05,VALID,1003.9,VALID,0,INVALID,163.67,VALID,0,VALID,25.0644,VALID,254,VALID,0.692578,
2011-06-01, 02:39:05,VALID,1003.89,VALID,0,INVALID,163.647,VALID,0,VALID,25.0469,VALID,227,VALID,1.44727,
2011-06-01, 02:40:05,VALID,1003.89,VALID,0.5,INVALID,163.655,VALID,0,VALID,25.0079,VALID,230,VALID,0.684766,
2011-06-01, 02:41:05,VALID,1003.79,VALID,0,INVALID,163.739,VALID,0,VALID,24.9106,VALID,285,VALID,0.828906,
2011-06-01, 02:42:05,VALID,1003.78,VALID,0.5,INVALID,163.678,VALID,0,VALID,24.8132,VALID,262,VALID,1.45508,
2011-06-01, 02:43:04,VALID,1003.82,VALID,0.5,INVALID,163.67,VALID,0,VALID,24.6732,VALID,233,VALID,2.53711,
2011-06-01, 02:44:04,VALID,1003.8,VALID,0,INVALID,163.716,VALID,0,VALID,24.5972,VALID,294,VALID,0.740625,
2011-06-01, 02:45:04,VALID,1003.8,VALID,0,INVALID,163.701,VALID,0,VALID,24.5388,VALID,248,VALID,1.03203,
2011-06-01, 02:46:04,VALID,1003.75,VALID,0.5,INVALID,163.693,VALID,0,VALID,24.5212,VALID,258,VALID,0.638672,
2011-06-01, 02:47:04,VALID,1003.67,VALID,0,INVALID,163.716,VALID,0,VALID,24.4822,VALID,259,VALID,1.54102,
2011-06-01, 02:48:04,VALID,1003.68,VALID,0.5,INVALID,163.685,VALID,0,VALID,24.4414,VALID,289,VALID,1.13789,
2011-06-01, 02:49:04,VALID,1003.61,VALID,0,INVALID,163.723,VALID,0,VALID,24.4628,VALID,279,VALID,1.47891,
2011-06-01, 02:50:04,VALID,1003.6,VALID,0,INVALID,163.701,VALID,0,VALID,24.4646,VALID,287,VALID,0.726953,
2011-06-01, 02:51:04,VALID,1003.58,VALID,0.5,INVALID,163.723,VALID,0,VALID,24.422,VALID,290,VALID,0.669531,
2011-06-01, 02:52:04,VALID,1003.55,VALID,0,INVALID,163.693,VALID,0,VALID,24.4433,VALID,312,VALID,1.24063,
2011-06-01, 02:53:04,VALID,1003.56,VALID,0,INVALID,163.716,VALID,0,VALID,24.4025,VALID,269,VALID,1.2207,
2011-06-01, 02:54:04,VALID,1003.55,VALID,0.5,INVALID,163.708,VALID,0,VALID,24.4025,VALID,254,VALID,1.28086,
2011-06-01, 02:55:04,VALID,1003.58,VALID,0,INVALID,163.693,VALID,0,VALID,24.4238,VALID,243,VALID,1.15859,
2011-06-01, 02:56:04,VALID,1003.54,VALID,0,INVALID,163.708,VALID,0,VALID,24.383,VALID,281,VALID,2.11406,
2011-06-01, 02:57:04,VALID,1003.58,VALID,0,INVALID,163.693,VALID,0,VALID,24.3636,VALID,286,VALID,1.77813,
2011-06-01, 02:58:04,VALID,1003.59,VALID,0,INVALID,163.701,VALID,0,VALID,24.3654,VALID,251,VALID,0.996094,
2011-06-01, 02:59:04,VALID,1003.58,VALID,0,INVALID,163.67,VALID,0,VALID,24.3636,VALID,296,VALID,1.19844,
2011-06-01, 03:00:04,VALID,1003.61,VALID,0,INVALID,163.701,VALID,0,VALID,24.3441,VALID,128,VALID,0.826953,
2011-06-01, 03:01:04,VALID,1003.63,VALID,0,INVALID,163.708,VALID,0,VALID,24.3246,VALID,260,VALID,1.61016,
2011-06-01, 03:02:04,VALID,1003.66,VALID,0,INVALID,163.716,VALID,0,VALID,24.3265,VALID,282,VALID,1.12188,
2011-06-01, 03:03:04,VALID,1003.63,VALID,0,INVALID,163.701,VALID,0,VALID,24.2857,VALID,269,VALID,0.766797,
2011-06-01, 03:04:04,VALID,1003.61,VALID,0,INVALID,163.716,VALID,0,VALID,24.2681,VALID,266,VALID,2.55156,
2011-06-01, 03:05:04,VALID,1003.62,VALID,0,INVALID,163.739,VALID,0,VALID,24.2273,VALID,256,VALID,1.87422,
2011-06-01, 03:06:04,VALID,1003.61,VALID,0,INVALID,163.723,VALID,0,VALID,24.1884,VALID,297,VALID,2.14492,
2011-06-01, 03:07:04,VALID,1003.65,VALID,0,INVALID,163.716,VALID,0,VALID,24.1494,VALID,259,VALID,1.65352,
2011-06-01, 03:08:04,VALID,1003.69,VALID,0,INVALID,163.708,VALID,0,VALID,24.1105,VALID,222,VALID,0.548047,
2011-06-01, 03:09:04,VALID,1003.66,VALID,0,INVALID,163.739,VALID,0,VALID,24.091,VALID,271,VALID,1.17344,
2011-06-01, 03:10:04,VALID,1003.7,VALID,0,INVALID,163.708,VALID,0,VALID,24.0929,VALID,286,VALID,1.02773,
2011-06-01, 03:11:04,VALID,1003.7,VALID,0.5,INVALID,163.746,VALID,0,VALID,24.0326,VALID,273,VALID,2.11758,
2011-06-01, 03:12:04,VALID,1003.65,VALID,0,INVALID,163.723,VALID,0,VALID,24.0132,VALID,240,VALID,1.46289,
2011-06-01, 03:13:04,VALID,1003.72,VALID,0,INVALID,163.739,VALID,0,VALID,23.9937,VALID,244,VALID,0.751172,
2011-06-01, 03:14:04,VALID,1003.72,VALID,0,INVALID,163.739,VALID,0,VALID,23.9742,VALID,14,VALID,0.55,
2011-06-01, 03:15:04,VALID,1003.7,VALID,0,INVALID,163.716,VALID,0,VALID,23.9353,VALID,281,VALID,2.46563,
2011-06-01, 03:16:04,VALID,1003.63,VALID,0,INVALID,163.746,VALID,0,VALID,23.9177,VALID,243,VALID,2.06094,
2011-06-01, 03:17:04,VALID,1003.64,VALID,0,INVALID,163.739,VALID,0,VALID,23.8964,VALID,287,VALID,1.59648,
2011-06-01, 03:18:04,VALID,1003.62,VALID,0,INVALID,163.739,VALID,0,VALID,23.9159,VALID,274,VALID,1.54727,
2011-06-01, 03:19:04,VALID,1003.61,VALID,0,INVALID,163.739,VALID,0,VALID,23.9177,VALID,300,VALID,1.39531,
2011-06-01, 03:20:04,VALID,1003.57,VALID,0,INVALID,163.746,VALID,0,VALID,23.8964,VALID,355,VALID,0.851172,
2011-06-01, 03:21:04,VALID,1003.55,VALID,0,INVALID,163.731,VALID,0,VALID,23.8964,VALID,276,VALID,1.52852,
2011-06-01, 03:22:04,VALID,1003.56,VALID,0,INVALID,163.746,VALID,0,VALID,23.8964,VALID,289,VALID,1.76211,
2011-06-01, 03:23:04,VALID,1003.54,VALID,0,INVALID,163.723,VALID,0,VALID,23.9177,VALID,299,VALID,1.04258,
2011-06-01, 03:24:04,VALID,1003.51,VALID,0,INVALID,163.716,VALID,0,VALID,23.8964,VALID,281,VALID,0.829297,
2011-06-01, 03:25:04,VALID,1003.47,VALID,0,INVALID,163.762,VALID,0,VALID,23.8769,VALID,305,VALID,1.54023,
2011-06-01, 03:26:04,VALID,1003.48,VALID,0.5,INVALID,163.746,VALID,0,VALID,23.8964,VALID,240,VALID,0.475,
2011-06-01, 03:27:04,VALID,1003.51,VALID,0,INVALID,163.762,VALID,0,VALID,23.8769,VALID,304,VALID,1.13555,
2011-06-01, 03:28:04,VALID,1003.51,VALID,0.5,INVALID,163.716,VALID,0,VALID,23.8751,VALID,305,VALID,1.81328,
2011-06-01, 03:29:04,VALID,1003.51,VALID,0,INVALID,163.739,VALID,0,VALID,23.8769,VALID,288,VALID,1.68242,
2011-06-01, 03:30:04,VALID,1003.49,VALID,0,INVALID,163.746,VALID,0,VALID,23.8556,VALID,234,VALID,0.982031,
2011-06-01, 03:31:04,VALID,1003.52,VALID,0.5,INVALID,163.754,VALID,0,VALID,23.8751,VALID,283,VALID,1.53125,
2011-06-01, 03:32:04,VALID,1003.49,VALID,0,INVALID,163.731,VALID,0,VALID,23.8556,VALID,294,VALID,1.66836,
2011-06-01, 03:33:04,VALID,1003.54,VALID,0,INVALID,163.746,VALID,0,VALID,23.8769,VALID,293,VALID,0.872266,
2011-06-01, 03:34:04,VALID,1003.49,VALID,0,INVALID,163.708,VALID,0,VALID,23.8982,VALID,311,VALID,2.65195,
2011-06-01, 03:35:04,VALID,1003.5,VALID,0.5,INVALID,163.739,VALID,0,VALID,23.8167,VALID,290,VALID,1.2875,
2011-06-01, 03:36:04,VALID,1003.52,VALID,0,INVALID,163.754,VALID,0,VALID,23.838,VALID,295,VALID,0.676172,
2011-06-01, 03:37:04,VALID,1003.53,VALID,0,INVALID,163.731,VALID,0,VALID,23.8769,VALID,305,VALID,0.629297,
2011-06-01, 03:38:04,VALID,1003.51,VALID,0,INVALID,163.731,VALID,0,VALID,23.8575,VALID,298,VALID,2.00938,
2011-06-01, 03:39:04,VALID,1003.56,VALID,0,INVALID,163.723,VALID,0,VALID,23.8575,VALID,295,VALID,0.970312,
2011-06-01, 03:40:04,VALID,1003.53,VALID,0.5,INVALID,163.739,VALID,0,VALID,23.838,VALID,289,VALID,1.0918,
2011-06-01, 03:41:04,VALID,1003.49,VALID,0,INVALID,163.731,VALID,0.100563,VALID,23.838,VALID,292,VALID,1.5668,